Regional Weather Roundup
Issued by NWS Charleston, WV

Home | Current Version | Previous Version | Text Only | Print | Product List | Glossary Off
Versions: 1 2 3 4 5 6 7 8 9 10 11 12 13 14 15 16 17 18 19 20 21 22 23 24 25 26 27 28 29 30 31 32 33 34 35 36 37 38 39 40 41 42 43 44 45 46 47 48 49 50

000
ASUS41 KRLX 040410
RWRRLX
West Virginia Regional Weather Roundup
National Weather Service Charleston WV
1200 AM EDT TUE AUG 04 2015

Note: "fair" indicates few or no clouds below 12,000 feet with no
significant weather and/or obstructions to visibility.

WVZ003-040500-
Northern Panhandle of West Virginia

CITY           SKY/WX    TMP DP  RH WIND       PRES   REMARKS
WHEELING       TSTM      70  65  84 W9        29.87R
$$

WVZ009-040500-
Northwest West Virginia

CITY           SKY/WX    TMP DP  RH WIND       PRES   REMARKS
PARKERSBURG    PTCLDY    72  67  84 W3        29.91S
$$

WVZ006-040500-
Western West Virginia

CITY           SKY/WX    TMP DP  RH WIND       PRES   REMARKS
HUNTINGTON     TSTM      68  64  87 SW5       29.92R
$$

WVZ015-040500-
West Central West Virginia

CITY           SKY/WX    TMP DP  RH WIND       PRES   REMARKS
CHARLESTON     CLOUDY    78  67  68 W20G35    29.91R THUNDER
$$

WVZ022-031-040500-
North Central West Virginia

CITY           SKY/WX    TMP DP  RH WIND       PRES   REMARKS
CLARKSBURG     PTCLDY    73  65  75 SW6       29.90R
MORGANTOWN     PTCLDY    74  63  68 S3        29.90R
$$

WVZ025-035-042-045-040500-
Southern West Virginia

CITY           SKY/WX    TMP DP  RH WIND       PRES   REMARKS
BECKLEY        CLOUDY    73  61  65 SW7       30.04R
LOGAN          NOT AVBL
BLUEFIELD      CLOUDY    73  58  59 W7        30.08R
LEWISBURG      CLOUDY    69  61  76 CALM      30.02R
$$

WVZ047-040500-
Northern Mountains of West Virginia

CITY           SKY/WX    TMP DP  RH WIND       PRES   REMARKS
ELKINS         MOCLDY    66  61  84 CALM      29.97R
$$

WVZ052-040500-
Eastern Panhandle of West Virginia

CITY           SKY/WX    TMP DP  RH WIND       PRES   REMARKS
MARTINSBURG    MOCLDY    71  65  81 CALM      29.86R
PETERSBURG     PTCLDY    67  63  84 CALM      29.91S
$$



USA.gov is the U.S. government's official web portal to all federal, state and local government web resources and services.